• In India
  • List of Countries
  • For 7 days
  • Water Temperature
  • Satellite Maps
  • Weather Map
  • Weather Widgets
  • user-avatar
    Login

    Hourly Weather Trashigang

    Today, 13 December, Thursday

    Time Temperature Precipitation Wind Pressure Humidity
    00:00 +6°C° 0 mm 2 mps 627 mmHg 33%
    01:00 +6°C° 0 mm 2 mps 627 mmHg 33%
    02:00 +6°C° 0 mm 2 mps 627 mmHg 34%
    03:00 +6°C° 0 mm 2 mps 627 mmHg 34%
    04:00 +5°C° 0 mm 2 mps 627 mmHg 33%
    05:00 +5°C° 0 mm 2 mps 627 mmHg 32%
    06:00 +5°C° 0 mm 2 mps 627 mmHg 31%
    07:00 +8°C° 0 mm 2 mps 628 mmHg 28%
    08:00 +12°C° 0 mm 1 mps 629 mmHg 25%
    09:00 +14°C° 0 mm 1 mps 631 mmHg 23%
    10:00 +16°C° 0 mm 1 mps 631 mmHg 23%
    11:00 +17°C° 0 mm 2 mps 631 mmHg 23%
    12:00 +18°C° 0 mm 2 mps 631 mmHg 23%
    13:00 +17°C° 0 mm 2 mps 630 mmHg 26%
    14:00 +17°C° 0 mm 2 mps 629 mmHg 29%
    15:00 +16°C° 0 mm 2 mps 628 mmHg 32%
    16:00 +13°C° 0 mm 2 mps 628 mmHg 39%
    17:00 +10°C° 0 mm 2 mps 627 mmHg 46%
    18:00 +7°C° 0 mm 2 mps 627 mmHg 53%
    19:00 +7°C° 0 mm 2 mps 627 mmHg 50%
    20:00 +6°C° 0 mm 2 mps 627 mmHg 48%
    21:00 +6°C° 0 mm 2 mps 628 mmHg 45%
    22:00 +6°C° 0 mm 2 mps 628 mmHg 44%
    23:00 +5°C° 0 mm 2 mps 628 mmHg 44%

    Tomorrow, 14 December, Friday

    Time Temperature Precipitation Wind Pressure Humidity
    00:00 +5°C° 0 mm 2 mps 628 mmHg 43%
    01:00 +5°C° 0 mm 2 mps 628 mmHg 43%
    02:00 +5°C° 0 mm 2 mps 628 mmHg 43%
    03:00 +5°C° 0 mm 2 mps 628 mmHg 42%
    04:00 +5°C° 0 mm 2 mps 628 mmHg 41%
    05:00 +5°C° 0 mm 2 mps 628 mmHg 40%
    06:00 +5°C° 0 mm 2 mps 628 mmHg 38%
    07:00 +7°C° 0 mm 2 mps 629 mmHg 33%
    08:00 +11°C° 0 mm 1 mps 630 mmHg 28%
    09:00 +14°C° 0 mm 1 mps 631 mmHg 24%
    10:00 +15°C° 0 mm 1 mps 631 mmHg 23%
    11:00 +16°C° 0 mm 2 mps 630 mmHg 23%
    12:00 +18°C° 0 mm 2 mps 630 mmHg 22%
    13:00 +17°C° 0 mm 2 mps 629 mmHg 26%
    14:00 +16°C° 0 mm 2 mps 628 mmHg 29%
    15:00 +16°C° 0 mm 2 mps 628 mmHg 32%
    16:00 +13°C° 0 mm 2 mps 627 mmHg 41%
    17:00 +9°C° 0 mm 2 mps 627 mmHg 50%
    18:00 +7°C° 0 mm 2 mps 627 mmHg 59%
    19:00 +6°C° 0 mm 2 mps 627 mmHg 58%
    20:00 +6°C° 0 mm 2 mps 628 mmHg 56%
    21:00 +6°C° 0 mm 2 mps 628 mmHg 54%
    22:00 +6°C° 0 mm 2 mps 628 mmHg 53%
    23:00 +6°C° 0 mm 2 mps 628 mmHg 51%

    Day after tomorrow, 15 December, Saturday

    Time Temperature Precipitation Wind Pressure Humidity
    00:00 +5°C° 0 mm 2 mps 628 mmHg 50%
    01:00 +5°C° 0 mm 2 mps 628 mmHg 47%
    02:00 +5°C° 0 mm 2 mps 628 mmHg 45%
    03:00 +5°C° 0 mm 2 mps 628 mmHg 42%
    04:00 +5°C° 0 mm 2 mps 628 mmHg 40%
    05:00 +5°C° 0 mm 2 mps 628 mmHg 38%
    06:00 +5°C° 0 mm 2 mps 628 mmHg 36%
    07:00 +8°C° 0 mm 2 mps 629 mmHg 31%
    08:00 +12°C° 0 mm 1 mps 631 mmHg 26%
    09:00 +15°C° 0 mm 1 mps 632 mmHg 22%
    10:00 +16°C° 0 mm 1 mps 632 mmHg 21%
    11:00 +17°C° 0 mm 2 mps 632 mmHg 20%
    12:00 +19°C° 0 mm 2 mps 632 mmHg 19%
    13:00 +18°C° 0 mm 2 mps 631 mmHg 22%
    14:00 +17°C° 0 mm 2 mps 630 mmHg 25%
    15:00 +17°C° 0 mm 2 mps 629 mmHg 28%
    16:00 +14°C° 0 mm 2 mps 629 mmHg 37%
    17:00 +10°C° 0 mm 2 mps 629 mmHg 45%
    18:00 +7°C° 0 mm 2 mps 628 mmHg 54%
    19:00 +7°C° 0 mm 2 mps 629 mmHg 50%
    20:00 +7°C° 0 mm 2 mps 629 mmHg 46%
    21:00 +7°C° 0 mm 2 mps 630 mmHg 42%
    22:00 +7°C° 0 mm 2 mps 630 mmHg 39%
    23:00 +7°C° 0 mm 2 mps 629 mmHg 37%

    16 December, Sunday

    Time Temperature Precipitation Wind Pressure Humidity
    00:00 +7°C° 0 mm 2 mps 629 mmHg 34%
    01:00 +7°C° 0 mm 2 mps 629 mmHg 33%
    02:00 +7°C° 0 mm 2 mps 629 mmHg 31%
    03:00 +7°C° 0 mm 2 mps 629 mmHg 29%
    04:00 +8°C° 0 mm 2 mps 629 mmHg 27%
    05:00 +8°C° 0 mm 2 mps 629 mmHg 25%
    06:00 +8°C° 0 mm 2 mps 629 mmHg 24%
    07:00 +11°C° 0 mm 1 mps 631 mmHg 23%
    08:00 +13°C° 0 mm 1 mps 632 mmHg 22%
    09:00 +15°C° 0 mm 1 mps 633 mmHg 22%
    10:00 +16°C° 0 mm 1 mps 632 mmHg 21%
    11:00 +18°C° 0 mm 1 mps 632 mmHg 21%
    12:00 +19°C° 0 mm 1 mps 632 mmHg 20%
    13:00 +18°C° 0 mm 1 mps 632 mmHg 23%
    14:00 +18°C° 0 mm 1 mps 631 mmHg 26%
    15:00 +16°C° 0 mm 1 mps 630 mmHg 29%
    16:00 +15°C° 0 mm 1 mps 630 mmHg 34%
    17:00 +13°C° 0 mm 1 mps 630 mmHg 39%
    18:00 +11°C° 0 mm 1 mps 629 mmHg 44%
    19:00 +11°C° 0 mm 1 mps 630 mmHg 44%
    20:00 +11°C° 0 mm 1 mps 630 mmHg 43%
    21:00 +11°C° 0 mm 1 mps 630 mmHg 43%
    22:00 +11°C° 0 mm 1 mps 630 mmHg 42%
    23:00 +11°C° 0 mm 1 mps 630 mmHg 41%

    17 December, Monday

    Time Temperature Precipitation Wind Pressure Humidity
    00:00 +11°C° 0 mm 1 mps 630 mmHg 40%
    01:00 +11°C° 0 mm 1 mps 629 mmHg 40%
    02:00 +10°C° 0 mm 1 mps 629 mmHg 40%
    03:00 +9°C° 0 mm 2 mps 629 mmHg 40%
    04:00 +11°C° 0 mm 1 mps 629 mmHg 39%
    05:00 +11°C° 0 mm 1 mps 629 mmHg 37%
    06:00 +12°C° 0 mm 1 mps 629 mmHg 36%
    07:00 +13°C° 0 mm 1 mps 630 mmHg 36%
    08:00 +15°C° 0 mm 1 mps 631 mmHg 36%
    09:00 +15°C° 0 mm 0 mps 632 mmHg 37%
    10:00 +15°C° 0.2 mm 0 mps 632 mmHg 39%
    11:00 +16°C° 0.2 mm 0 mps 631 mmHg 41%
    12:00 +16°C° 0.2 mm 0 mps 631 mmHg 44%
    13:00 +15°C° 0.3 mm 0 mps 630 mmHg 51%
    14:00 +14°C° 0.3 mm 0 mps 629 mmHg 58%
    15:00 +14°C° 0.3 mm 0 mps 629 mmHg 66%
    16:00 +13°C° 0.6 mm 0 mps 628 mmHg 71%
    17:00 +13°C° 0.6 mm 1 mps 628 mmHg 76%
    18:00 +12°C° 0.6 mm 1 mps 628 mmHg 82%
    19:00 +12°C° 0.9 mm 1 mps 628 mmHg 84%
    20:00 +12°C° 0.9 mm 1 mps 629 mmHg 86%
    21:00 +12°C° 0.9 mm 1 mps 629 mmHg 88%
    22:00 +11°C° 1.7 mm 1 mps 629 mmHg 89%
    23:00 +11°C° 1.7 mm 1 mps 628 mmHg 91%

    18 December, Tuesday

    Time Temperature Precipitation Wind Pressure Humidity
    00:00 +11°C° 1.7 mm 1 mps 628 mmHg 92%
    01:00 +11°C° 2.9 mm 1 mps 628 mmHg 93%
    02:00 +11°C° 2.9 mm 1 mps 628 mmHg 93%
    03:00 +11°C° 2.9 mm 1 mps 627 mmHg 94%
    04:00 +11°C° 1.8 mm 1 mps 627 mmHg 94%
    05:00 +11°C° 1.8 mm 1 mps 627 mmHg 95%
    06:00 +11°C° 1.8 mm 1 mps 627 mmHg 95%
    07:00 +12°C° 0.4 mm 1 mps 628 mmHg 93%
    08:00 +13°C° 0.4 mm 1 mps 628 mmHg 91%
    09:00 +14°C° 0.4 mm 1 mps 629 mmHg 89%
    10:00 +14°C° 1.2 mm 1 mps 628 mmHg 88%
    11:00 +14°C° 1.2 mm 1 mps 628 mmHg 87%
    12:00 +14°C° 1.2 mm 1 mps 627 mmHg 86%
    13:00 +14°C° 0.7 mm 1 mps 626 mmHg 86%
    14:00 +14°C° 0.7 mm 1 mps 626 mmHg 85%
    15:00 +14°C° 0.7 mm 1 mps 625 mmHg 84%
    16:00 +13°C° 1.8 mm 1 mps 625 mmHg 88%
    17:00 +12°C° 1.8 mm 1 mps 625 mmHg 91%
    18:00 +11°C° 1.8 mm 1 mps 625 mmHg 95%
    19:00 +11°C° 1.7 mm 1 mps 625 mmHg 95%
    20:00 +11°C° 1.7 mm 1 mps 626 mmHg 95%
    21:00 +11°C° 1.7 mm 1 mps 626 mmHg 95%
    22:00 +11°C° 1.6 mm 1 mps 626 mmHg 94%
    23:00 +11°C° 1.6 mm 1 mps 626 mmHg 94%
    Show more